Regional Weather Roundup
Issued by NWS Portland, ME

Home | Current Version | Previous Version | Text Only | Print | Product List | Glossary On
Versions: 1 2 3 4 5 6 7 8 9 10 11 12 13 14 15 16 17 18 19 20 21 22 23 24 25 26 27 28 29 30 31 32 33 34 35 36 37 38 39 40 41 42 43 44 45 46 47 48 49 50
000
ASUS41 KGYX 290110
RWRGYX
WEATHER ROUNDUP FOR MAINE AND NEW HAMPSHIRE
NATIONAL WEATHER SERVICE GRAY ME
900 PM EDT SUN MAY 28 2017

MEZ002-005-006-010-012-015-018-020-021-024-026-027-029-290200-
MAINE

CITY           SKY/WX    TMP DP  RH WIND       PRES   REMARKS
PORTLAND       CLOUDY    50  47  89 S5        30.04R
SANFORD        CLOUDY    50  48  93 VRB5      30.03R
BAR HARBOR     CLEAR     46  44  93 SW5       30.07
WISCASSET      CLOUDY    49  47  93 SE3       30.05S
ROCKLAND       CLEAR     47  45  93 CALM      30.05
FRYEBURG       CLOUDY    56  49  77 E6        30.01R
LEWISTONAUBURN PTCLDY    48  46  93 S5        30.03R
AUGUSTA        CLEAR     51  44  77 S8        30.03R
WATERVILLE     CLEAR     54  48  80 CALM      30.00R
BANGOR         PTCLDY    50  45  83 S10       30.04R
GREENVILLE       N/A     58  47  66 S6        29.97R
MILLINOCKET    CLOUDY    61  49  64 SE8       29.99R
HOULTON        CLOUDY    62  51  67 VRB6      29.98R
PRESQUE ISLE   CLOUDY    60  56  86 CALM      29.98R
FRENCHVILLE    PTCLDY    59  47  64 NW7       29.97S
CARIBOU        CLOUDY    63  50  62 CALM      29.96S
$$

NHZ002-005-008-009-011-012-014-290200-
NEW HAMPSHIRE

CITY           SKY/WX    TMP DP  RH WIND       PRES   REMARKS
PORTSMOUTH     CLOUDY    50  48  91 E5        30.00R
ROCHESTER      CLOUDY    51  47  86 SE3       30.00S
NASHUA         CLOUDY    62  54  74 E5        29.98S
MANCHESTER     CLOUDY    59  51  75 E6        29.97R
CONCORD        CLOUDY    58  52  80 SE6       29.98R
LACONIA        CLOUDY    57  53  86 CALM      29.98S
PLYMOUTH       FAIR      61  52  72 E6        29.96S
BERLIN         CLOUDY    62  49  62 S7        29.96R
WHITEFIELD     CLOUDY    64  50  60 SE9G18    29.94R
JAFFREY        CLOUDY    61  58  90 CALM      29.98R
KEENE          CLOUDY    62  57  83 CALM      29.96R HAZE
LEBANON        CLOUDY    66  55  67 SE3       29.92S
MT WASHINGTON  PTCLDY    45  27  49 S6          N/A
$$

VTZ005-007-008-290200-
VERMONT

CITY           SKY/WX    TMP DP  RH WIND       PRES   REMARKS
ST JOHNSBURY     N/A     67  54  63 MISG      29.90R
MONTPELIER     CLOUDY    64  52  64 S8        29.95S
BURLINGTON     PTCLDY    69  54  58 SE6       29.87R
$$

MAZ007-012-024-CTZ003-RIZ002-NYZ038-NYZ072-290200-
SOUTHERN NEW ENGLAND AND NY

CITY           SKY/WX    TMP DP  RH WIND       PRES   REMARKS
BOSTON         CLOUDY    61  50  67 S10       29.99R
WORCESTER      CLOUDY    59  47  64 S7        29.99R
NANTUCKET      CLOUDY    50  46  86 SE8       30.03S
PROVIDENCE     CLOUDY    55  51  86 S10       30.02R
HARTFORD       CLOUDY    62  47  57 S8        29.97R
ALBANY         CLOUDY    68  56  65 S14G22    29.89R
NEW YORK CITY  CLOUDY    63  50  62 SE9       29.94S
$$

ANZ081-ANZ082-ANZ150-NHZ014-MEZ023>029-290200-
COASTAL MARINE OBSERVATIONS

STATION/POSITION TIME  TEMP    WIND        PRES    WAVE
                       AIR SEA DIR/SP/G            HT/PER
                 (UTC) (F)     (DEG/KT/KT) (MB)    (FT/S)
MOUNT DESERT ROC 0100   46                 1018.5R
MATINICUS ROCK   0000   47     180/ 11/ 12 1017.1R
ISLE OF SHOALS   0000   49     130/  8/  9 1015.8R
JEFFREYS LEDGE   0006      50                N/A     4/ 5
CASHES LEDGE BUO 0050   47 49              1017.3F   3/ 7
GEORGES BANK BUO 2350   47 48              1016.9    4/ 8
$$

.............KEY..............
   WCI - WIND CHILL
   TC  - TEMPERATURE IN CELSIUS
   VSB - VISIBILITY IN MILES
   HX  - HEAT INDEX
   FAIR- INDICATES FEW OR NO CLOUDS BELOW 12,000 FT, WITH NO
         SIGNIFICANT WEATHER AND/OR OBSTRUCTIONS TO VISIBILITY.






USA.gov is the U.S. government's official web portal to all federal, state and local government web resources and services.